Regional Weather Roundup
Issued by NWS

Home | Current Version | Previous Version | Text Only | Print | Product List | Glossary Off
Versions: 1 2 3 4 5 6 7 8 9 10 11 12 13 14 15 16 17 18 19 20 21 22 23 24 25 26 27 28 29 30 31 32 33 34 35 36 37 38 39 40 41 42 43 44 45 46 47 48 49 50

000
ASUS43 KMPX 302010
RWRMN
WEATHER ROUNDUP FOR MINNESOTA
NATIONAL WEATHER SERVICE TWIN CITIES/CHANHASSEN MN
300 PM CDT TUE SEP 30 2014


NOTE: "FAIR" INDICATES FEW OR NO CLOUDS BELOW 12,000 FEET WITH NO
SIGNIFICANT WEATHER AND/OR OBSTRUCTIONS TO VISIBILITY. N/A MEANS
CURRENT SKY AND/OR WEATHER CONDITIONS ARE NOT AVAILABLE.

MNZ060>063-068>070-302100-
   Twin Cities Metro

CITY           SKY/WX    TMP DP  RH WIND       PRES   REMARKS
TWIN CITIES    PTSUNNY   56  42  59 E15       29.95F
ST PAUL        PTSUNNY   56  44  64 SE13      29.97F
CRYSTAL        PTSUNNY   57  43  59 E12G18    29.94F
BLAINE         PTSUNNY   57  45  62 E8        29.96F
LAKEVILLE      CLOUDY    55  45  67 E13       29.94F
EDEN PRAIRIE   CLOUDY    56  44  64 E16       29.93F
SOUTH ST PAUL  PTSUNNY   56  43  60 E8        29.96F
LAKE ELMO      FAIR      54  43  66 SE10G17   29.98F
$$
MNZ001>005-007-008-013>017-022>024-027-028-302100-
   Northwest Minnesota

CITY           SKY/WX    TMP DP  RH WIND       PRES   REMARKS
BEMIDJI        MOSUNNY   53  42  65 SE16G24   29.89F
HALLOCK          N/A     61  45  55 SE18G25   29.79F
ROSEAU         SUNNY     63  45  51 SE17      29.85F
WARROAD        SUNNY     59  46  63 E12       29.88F
THIEF RVR FALL PTSUNNY   57  43  58 E16       29.82F
CROOKSTON      CLOUDY    61  45  55 SE18G25   29.79F
FOSSTON        PTSUNNY   59  45  58 E10G16    29.83F
DETROIT LAKES  PTSUNNY   57  43  58 SE17G25   29.82F
PARK RAPIDS    PTSUNNY   55  42  61 SE13G23   29.88F
MAHNOMEN       MOCLDY    58  43  56 SE17      29.80F
$$
MNZ006-009>011-018-025>026-302100-
   North Central Minnesota

CITY           SKY/WX    TMP DP  RH WIND       PRES   REMARKS
BAUDETTE       SUNNY     57  43  59 SE10G17   29.90F
FLAG ISLAND    SUNNY     54  45  71 SE9G16    29.89F
INTL FALLS     SUNNY     56  43  61 SE9       29.96F
WASKISH        SUNNY     57  46  67 E14       29.91F
BIG FORK       SUNNY     57  43  58 SE8       29.95F
LONGVILLE      MOSUNNY   55  43  62 E5        29.93F
GRAND RAPIDS   SUNNY     55  39  54 SE13G20   29.96F
CRANE LAKE     SUNNY     57  43  58 E5        30.00F
ORR            SUNNY     57  39  51 SE12      29.95F
COOK           SUNNY     57  43  58 SE9       29.99F
WALKER         CLOUDY    53  43  67 E8        29.91F
$$
MNZ012-019>021-037-302100-
   Northeast Minnesota

CITY           SKY/WX    TMP DP  RH WIND       PRES   REMARKS
DULUTH         CLOUDY    48  41  76 E14G23    30.02F
ELY            SUNNY     55  39  54 SE9       30.01F
HIBBING        SUNNY     56  42  59 SE17      29.99F
EVELETH        SUNNY     52  41  66 SE10G16   30.01F
DULUTH HARBOR  PTSUNNY   52  46  82 NE21      30.04F
TWO HARBORS    CLOUDY    46  39  76 E13G24    30.04F
SILVER BAY     SUNNY     45  43  93 NE10G20   30.05F
GRAND MARAIS     N/A     50  39  66 E5        30.10F
G MARAIS ARPRT SUNNY     48  34  57 SE5       30.09S
$$
MNZ029>031-032-039>041-046>048-054>057-064-302100-
   West Central Minnesota

CITY           SKY/WX    TMP DP  RH WIND       PRES   REMARKS
FERGUS FALLS   CLOUDY    57  43  58 SE21G29   29.79F
WHEATON        DRIZZLE   50  46  87 SE18G26   29.79F
MORRIS         PTSUNNY   54  46  76 SE17G23   29.80F
ALEXANDRIA     CLOUDY    55  44  66 E18G26    29.85F
ELBOW LAKE     PTSUNNY   55  46  71 SE15G29   29.80F
WADENA         PTSUNNY   55  43  62 SE20      29.86F
GLENWOOD       CLOUDY    55  45  67 E16G23    29.86F
APPLETON       PTSUNNY   54  46  76 SE22G28   29.78F
BENSON         PTSUNNY   55  46  71 SE15G24   29.82F
ORTONVILLE     HVY RAIN  48  46  93 SE14      29.77F
MADISON        PTSUNNY   57  48  72 SE16G25   29.78F
WILLMAR        FAIR      57  45  62 SE17      29.87F
$$
MNZ033>034-036-042>043-049>051-058-059-302100-
   Central Minnesota

CITY           SKY/WX    TMP DP  RH WIND       PRES   REMARKS
ST CLOUD       PTSUNNY   57  42  57 E12G20    29.92F
SAUK CENTRE    FAIR      55  43  65 E16       29.89F
PAYNESVILLE    CLOUDY    52  44  72 NE14      29.89F
AITKIN         MOSUNNY   57  45  62 E8        29.94F
PINE RIVER     PTSUNNY   54  43  66 SE15      29.96F
BRAINERD       PTSUNNY   50  42  74 SE9G22    29.94F
STAPLES        PTSUNNY   54  43  66 E9G17     29.89F
LONG PRAIRIE   FAIR      54  43  66 E15G22    29.88F
LITTLE FALLS   PTSUNNY   52  41  66 E13       29.91F
LITCHFIELD     CLOUDY    55  48  76 E16       29.90F
BUFFALO        PTSUNNY   56  42  59 E16       29.93F
MAPLE LAKE     CLOUDY    56  46  69 E10G18    29.93F
$$
MNZ037-044-045-052-053-302100-
   East Central Minnesota

CITY           SKY/WX    TMP DP  RH WIND       PRES   REMARKS
PRINCETON      PTSUNNY   57  45  62 E8        29.96F
MORA           PTSUNNY   54  43  66 E9        29.98F
CAMBRIDGE      PTSUNNY   55  43  62 E10       29.95F
RUSH CITY      PTSUNNY   56  43  61 E6        29.98F
MOOSE LAKE     SUNNY     55  41  58 E3        29.97F
HINCKLEY       FAIR      54  43  66 E9        29.99F
CLOQUET        PTSUNNY   50  43  76 E10       30.01F
MCGREGOR       MOSUNNY   54  43  66 E12G20    29.97F
$$
MNZ071>073-080-081-089-090-097-098-302100-
   Southwest Minnesota

CITY           SKY/WX    TMP DP  RH WIND       PRES   REMARKS
MONTEVIDEO     PTSUNNY   55  48  76 SE21      29.81F
GRANITE FALLS  CLOUDY    57  48  73 E16G24    29.82F
CANBY          CLOUDY    56  52  85 SE13      29.78F
MARSHALL       PTSUNNY   61  48  63 SE20      29.78F
REDWOOD FALLS  PTSUNNY   59  48  67 E16G23    29.84F
OLIVIA         MOSUNNY   57  46  67 SE13      29.85F
PIPESTONE      CLOUDY    61  55  82 SE13G20   29.77F
WINDOM         PTSUNNY   63  54  72 SE17      29.84F
WORTHINGTON    CLOUDY    61  54  77 SE14G21   29.84R
JACKSON        PTSUNNY   61  52  72 SE15      29.86F
TRACY          CLOUDY    61  54  76 SE16G23   29.81F
SLAYTON        CLOUDY    61  54  78 SE16G22   29.82S
$$
MNZ065>067-074>077-082>085-091>093-302100-
   South Central Minnesota

CITY           SKY/WX    TMP DP  RH WIND       PRES   REMARKS
MANKATO        PTSUNNY   57  45  62 SE20      29.89F
NEW ULM        PTSUNNY   57  50  77 E12       29.88F
ST JAMES       MOSUNNY   64  52  63 SE14      29.88F
FAIRMONT       PTSUNNY   63  52  67 SE14      29.87F
GLENCOE        CLOUDY    57  44  59 E16       29.90F
FARIBAULT      CLOUDY    57  46  67 E8        29.93F
OWATONNA       CLOUDY    57  46  67 E10       29.93F
WASECA         CLOUDY    55  43  62 E15       29.93F
ALBERT LEA     CLOUDY    61  50  67 E16       29.91F
$$
MNZ078>079-086>088-094>096-302100-
   Southeast Minnesota

CITY           SKY/WX    TMP DP  RH WIND       PRES   REMARKS
ROCHESTER      CLOUDY    54  46  74 E12       29.97F
RED WING       PTSUNNY   57  43  58 SE9       29.97F
STANTON        CLOUDY    58  44  61 SE6       29.94F
DODGE CENTER   CLOUDY    57  46  67 E14       29.95F
WINONA         PTSUNNY   54  45  71 E12       30.01F
AUSTIN         CLOUDY    57  48  72 SE12      29.94F
PRESTON        CLOUDY    54  44  69 SE9       29.98F
$$
ABBREVIATIONS USED IN REMARKS
   TC - TEMPERATURES IN CELSIUS
  WCI - WIND CHILL INDEX
   HX - HEAT INDEX
  VSB - VISIBILITY
$$


USA.gov is the U.S. government's official web portal to all federal, state and local government web resources and services.